Location: Torrance
(33.8360°N, 118.3400°W)
Time: 12:47:27
(UTC-08:00)

ISS - Visible Passes

Search period start: 24 February 2020 00:00
Search period end: 05 March 2020 00:00
Orbit: 415 x 423 km, 51.6° (Epoch: 25 February)

Date Brightness Start Highest point End Pass type
(mag) Time Alt. Az. Time Alt. Az. Time Alt. Az.
24 Feb -2.3 05:27:38 20° NW 05:28:24 22° NW 05:31:06 10° NNE visible
25 Feb -1.8 04:42:15 22° NNE 04:42:15 22° NNE 04:43:48 10° NNE visible
26 Feb -1.3 05:30:01 10° NNW 05:30:20 10° NNW 05:30:37 10° NNW visible
27 Feb -1.0 04:44:04 11° N 04:44:04 11° N 04:44:25 10° N visible
